Wind_Speed
25 27 28 29 28 27 26 25 25 26 26 26 27 27 26 25 25 27 28 27 25 24 23 23 23 22 22 21 21 19 17 18 20 19 17 17 17 18 17 16 15 15 15 16 15 15 15 16 16 16 16 16 13 9 7 7 9 8 9 12 8 4 4 4 3 3 3 4 5 4 5 5 4 5 5 4 4 4 4 5 6 6 6 6 6
24 26 28 29 29 28 28 26 26 28 28 27 27 27 27 26 26 28 29 29 28 26 24 22 21 22 21 21 20 18 16 17 18 17 16 16 17 17 16 15 15 15 16 16 17 17 17 16 15 15 14 11 9 7 7 8 7 6 8 8 5 3 4 3 3 3 3 4 4 4 4 5 4 3 3 2 2 3 3 4 5 6 6 6 6
26 27 29 30 30 29 29 28 28 28 28 27 27 27 27 27 27 29 29 29 29 29 25 21 21 21 20 18 17 16 15 15 14 14 15 15 15 15 14 15 15 14 15 15 15 15 14 12 10 9 8 7 6 6 6 6 6 6 6 5 4 4 4 3 3 3 2 3 5 4 4 4 5 2 1 1 2 3 3 3 4 5 6 6 6
27 28 30 31 31 31 31 30 29 29 29 29 29 29 29 30 30 30 30 29 28 28 27 23 21 20 20 18 16 14 13 14 14 15 15 14 13 13 13 14 14 14 14 12 11 10 9 8 5 5 6 6 7 7 6 5 6 6 4 3 4 4 4 3 3 2 1 1 3 4 4 4 2 2 3 2 2 3 3 4 5 2 5 6 6
28 29 31 32 33 33 32 31 30 30 30 30 30 30 30 30 31 31 30 29 28 27 26 24 23 20 19 19 16 15 14 14 14 14 13 13 12 12 14 13 12 13 12 9 8 7 6 5 5 5 5 7 7 6 5 5 5 5 4 4 3 3 3 4 4 2 2 1 1 3 3 3 2 1 1 2 2 2 3 2 4 2 3 7 6
30 30 31 32 33 34 33 32 31 30 30 30 30 30 29 29 31 32 31 30 28 27 26 25 25 22 19 19 17 16 15 15 15 14 12 11 10 10 12 10 9 10 9 8 7 7 7 6 6 6 5 7 7 4 4 4 4 3 4 4 4 4 3 3 4 2 2 2 0 2 2 1 2 2 2 2 3 2 2 1 3 3 3 5 6
31 31 32 33 34 34 35 34 33 31 30 29 28 29 29 29 31 32 32 31 29 28 27 26 26 23 21 20 19 17 15 14 14 12 10 10 9 9 10 8 7 7 7 8 7 7 7 7 7 5 4 6 6 4 3 4 4 3 3 4 4 5 3 2 4 2 2 2 1 1 1 0 1 1 2 1 2 1 1 2 0 4 3 2 2
31 32 34 34 34 35 36 35 34 32 30 29 29 29 29 30 30 31 32 30 29 28 28 28 26 24 22 21 20 18 15 12 11 10 9 10 12 10 8 6 7 7 7 7 7 7 7 7 7 4 2 5 5 4 4 3 4 4 3 4 4 4 3 3 4 2 1 3 2 3 1 0 1 2 1 1 1 3 3 3 1 2 3 2 3
32 33 34 34 34 35 36 35 34 32 30 30 30 29 29 30 30 30 31 30 29 29 29 29 27 25 22 20 20 19 16 13 12 10 10 12 12 10 8 7 6 7 8 7 7 6 6 6 6 3 3 4 3 3 4 3 5 5 4 4 4 3 4 4 4 2 1 3 2 2 1 1 1 0 1 1 1 3 3 2 3 5 5 3 4
33 33 34 34 34 34 34 34 34 33 32 31 30 30 29 30 30 31 31 31 30 30 29 28 27 25 22 20 21 21 18 15 13 12 11 13 12 10 10 9 7 6 7 8 8 7 7 6 3 4 4 3 3 3 3 5 5 4 3 3 2 2 3 3 3 3 2 2 2 1 1 0 1 1 1 1 1 2 3 4 6 6 6 6 5
34 34 33 33 32 32 33 34 34 34 33 31 31 30 29 30 30 31 32 32 30 29 28 27 26 27 25 22 22 22 19 16 14 13 14 14 13 10 10 10 8 6 5 7 9 9 8 5 3 5 5 4 5 4 3 4 4 3 3 4 4 3 2 2 2 3 3 3 2 1 1 1 2 3 3 3 3 2 4 5 6 7 7 7 7
31 32 32 33 32 32 33 34 35 35 34 33 33 32 30 30 30 31 32 32 31 30 29 29 28 28 27 25 24 22 19 17 15 15 15 15 13 11 11 11 10 8 7 7 8 6 6 4 4 6 6 5 5 3 4 5 4 3 4 3 2 3 3 3 2 3 3 3 3 3 3 3 4 4 3 4 4 4 5 5 6 7 8 8 8
29 30 31 33 34 35 36 36 36 37 37 36 34 33 32 31 31 32 33 33 32 31 30 30 30 29 28 27 25 23 20 19 18 17 16 15 13 13 12 12 11 9 9 8 6 5 5 5 5 6 6 7 7 6 7 7 6 4 3 3 2 3 3 3 3 3 3 4 3 3 4 4 5 5 5 5 5 5 6 6 7 8 8 10 10
31 33 33 35 36 37 37 38 38 38 38 38 36 35 33 33 33 33 33 34 33 31 29 29 30 30 29 28 27 24 22 21 21 18 16 15 14 14 12 11 10 9 8 8 7 8 8 7 6 7 7 7 8 8 8 8 8 6 4 4 4 3 4 4 4 3 4 4 4 5 6 6 6 6 6 7 6 6 7 7 8 9 9 10 11
30 33 35 38 39 39 39 39 39 40 39 39 38 37 35 34 34 34 33 34 34 32 30 29 29 29 29 29 28 26 24 23 22 19 18 16 15 14 12 10 8 7 7 7 7 8 8 7 7 8 8 8 9 9 8 7 7 7 6 6 5 5 6 6 7 6 6 6 6 7 8 7 6 7 8 8 7 8 8 8 8 8 9 10 10
29 33 37 40 40 39 39 39 40 40 40 40 39 39 37 35 35 35 34 34 34 34 32 30 30 29 29 29 28 27 26 25 23 21 20 17 15 14 13 11 8 7 6 6 7 7 7 8 9 9 9 9 8 8 8 8 7 7 7 6 6 7 8 9 9 8 7 7 8 9 10 9 9 9 9 9 9 9 9 8 9 9 9 9 10
31 35 38 39 39 40 40 40 40 40 41 41 41 41 40 37 36 36 36 34 33 34 34 32 31 30 29 29 29 29 29 28 26 24 21 17 16 15 13 11 8 7 6 6 7 7 8 9 10 10 10 9 9 9 8 9 9 9 8 7 8 8 8 11 11 9 9 9 9 10 11 11 11 10 10 9 9 10 10 10 10 10 9 9 10
29 34 36 37 39 40 40 40 40 41 41 42 42 41 40 39 36 36 37 36 34 34 34 33 32 32 30 29 30 31 31 29 27 24 22 19 17 16 13 10 9 8 7 6 6 7 8 9 9 10 10 10 10 10 10 10 11 11 11 10 11 9 9 11 12 12 11 10 10 10 11 11 10 10 9 9 10 12 11 11 10 10 9 10 11
25 31 34 36 39 41 40 40 39 40 40 40 40 40 39 39 37 35 36 36 34 33 32 32 32 32 31 30 32 32 32 31 28 24 22 20 18 16 14 11 11 10 7 4 4 6 7 7 8 9 11 11 11 12 12 12 12 12 12 12 12 11 11 11 11 11 11 11 11 11 12 12 11 11 11 10 11 12 11 11 11 9 9 11 12
25 30 35 37 39 41 41 41 39 39 38 38 39 39 38 38 38 36 34 34 34 33 31 31 32 32 31 31 32 33 33 32 29 25 22 20 19 18 15 13 13 11 8 7 8 9 9 9 10 11 12 13 15 14 13 13 14 14 14 13 12 11 11 12 12 12 12 12 12 12 13 12 11 12 12 12 13 12 11 11 10 10 10 11 12
24 29 34 37 38 39 40 40 38 37 38 38 38 39 38 37 37 38 35 34 34 34 32 30 31 32 32 32 31 33 34 32 29 27 24 23 22 21 19 18 17 15 13 14 17 19 19 17 15 14 15 16 18 16 13 13 15 15 15 15 14 13 13 13 14 14 14 13 13 14 14 14 13 12 13 14 14 11 10 10 11 12 12 11 12
26 28 33 35 36 37 37 37 37 37 38 38 38 38 38 37 37 37 37 35 33 33 32 31 31 32 33 33 31 32 34 32 29 28 27 27 26 26 25 23 21 20 20 23 27 29 29 26 22 20 19 19 20 18 15 14 15 16 16 16 14 14 14 14 15 15 14 14 14 15 15 13 13 13 14 15 13 10 10 10 12 13 13 12 13
24 28 33 32 34 35 36 37 38 38 38 38 38 38 39 38 37 36 37 36 33 31 31 31 31 32 33 34 33 33 34 33 31 31 31 31 30 30 29 27 26 27 29 31 34 36 35 32 28 26 23 22 22 20 17 16 16 16 17 16 15 14 14 14 14 14 14 14 15 15 14 13 13 13 14 15 12 11 12 13 14 14 14 13 14
22 28 32 29 30 32 34 38 41 41 39 38 38 38 38 38 37 35 36 36 33 31 31 32 32 31 31 34 35 34 35 35 35 35 35 35 35 34 33 32 33 34 36 36 37 39 41 38 33 30 28 25 23 22 21 20 18 16 17 17 17 16 16 16 16 16 15 15 16 15 14 14 14 14 14 14 13 12 14 15 15 15 15 14 14
18 25 29 27 28 31 35 40 44 44 41 39 39 38 37 37 37 36 34 33 33 33 32 32 32 32 31 33 35 35 36 37 36 36 37 38 38 36 36 38 40 40 39 39 37 39 43 41 37 33 31 29 26 24 23 23 20 17 17 17 17 17 17 17 17 17 15 15 16 16 15 14 14 15 14 14 15 14 15 15 16 16 16 16 17
16 20 24 26 28 31 35 39 44 46 42 40 40 38 37 37 36 36 33 32 33 34 34 33 32 33 34 35 35 37 38 39 36 37 40 42 40 38 39 42 43 41 41 40 38 39 42 42 39 35 31 30 28 25 25 24 21 18 18 17 16 17 18 17 17 16 16 17 17 16 16 15 15 15 15 16 16 15 15 16 17 18 19 19 19
17 19 22 26 27 30 34 38 42 44 43 41 40 38 38 37 37 35 33 32 33 35 36 35 35 37 38 36 36 38 40 40 39 42 44 44 42 42 43 45 45 42 42 41 36 33 37 40 40 38 34 32 31 27 26 25 22 21 20 17 16 17 18 18 17 16 16 17 16 15 15 16 15 15 16 17 17 17 18 20 20 20 21 20 19
16 19 22 26 28 30 33 36 38 40 41 41 39 38 39 38 37 36 34 33 34 36 37 36 37 40 40 38 38 39 40 42 42 45 46 46 45 46 46 46 45 43 43 43 35 28 30 34 37 39 37 34 32 30 27 25 21 21 21 18 18 19 19 19 18 17 17 17 15 15 16 16 16 16 18 19 18 19 22 22 21 20 20 20 20
18 20 23 24 27 30 32 35 36 38 39 39 38 39 39 39 38 37 35 35 35 36 37 38 41 42 39 38 39 39 40 44 46 46 48 49 48 48 47 46 45 44 46 48 41 31 28 29 30 35 38 35 33 32 30 25 21 21 21 20 20 21 20 19 18 18 18 16 15 16 17 17 17 18 20 20 19 20 23 23 22 21 22 24 26
19 18 20 22 25 29 32 34 35 37 38 39 39 39 39 38 38 37 36 35 34 36 37 39 42 42 38 37 39 41 43 47 48 47 48 50 48 47 47 46 45 45 46 50 47 37 31 28 27 32 39 38 35 33 32 29 24 21 21 21 23 23 21 19 17 16 16 16 16 17 17 18 20 20 19 19 20 22 24 23 23 23 24 28 29
18 16 16 19 23 26 30 33 36 39 40 40 39 39 38 37 36 37 37 35 34 35 36 37 38 38 37 40 44 46 46 46 46 44 45 47 45 44 46 46 46 47 47 50 49 41 35 32 31 33 37 39 37 34 33 33 27 21 20 21 23 24 22 20 18 16 15 16 18 19 20 21 22 21 20 20 22 24 25 25 24 23 24 26 27
15 13 16 20 23 27 30 34 37 39 40 40 40 39 38 37 35 35 36 35 33 34 35 37 40 40 42 45 48 49 47 44 42 40 40 41 41 41 43 43 45 47 47 49 49 44 39 37 38 38 37 38 37 35 34 33 27 22 19 21 23 24 24 23 20 18 17 18 19 20 21 22 23 22 23 24 24 25 25 25 24 24 24 24 25
13 13 17 21 24 28 31 34 35 37 38 39 39 39 38 36 34 34 34 34 33 32 33 36 41 44 46 47 48 47 45 42 39 37 37 38 38 39 39 41 44 47 48 49 49 46 42 40 41 40 38 36 33 33 33 32 27 23 21 22 25 26 25 24 23 21 19 19 20 20 22 25 25 24 24 24 24 25 25 25 26 27 26 22 21
13 13 17 21 25 27 29 30 31 33 35 35 35 35 36 34 33 32 33 34 33 32 34 38 41 42 43 43 43 42 39 38 36 34 35 36 37 37 37 39 43 46 49 50 49 46 44 43 43 41 38 34 28 28 30 30 28 26 23 23 26 28 28 26 24 21 20 21 22 22 24 25 24 22 23 24 25 26 26 27 28 27 22 19 18
15 18 21 23 26 27 28 29 30 31 32 32 32 33 34 33 32 31 33 34 34 34 36 39 38 36 37 37 36 35 32 30 29 28 30 32 34 34 35 37 42 46 50 50 49 46 44 43 42 39 36 31 25 25 28 29 29 27 24 23 25 28 29 27 24 21 20 22 24 24 23 22 21 22 26 28 28 27 28 29 28 23 19 19 20
17 20 23 24 26 27 28 30 31 31 32 33 33 32 32 32 31 31 33 35 35 34 34 36 34 34 35 34 32 30 28 26 24 24 26 27 28 30 31 34 39 44 46 47 47 45 43 42 40 37 34 28 24 26 29 29 29 26 23 24 26 27 29 27 24 23 22 23 26 24 22 24 24 25 28 29 29 30 31 31 26 20 19 20 20
19 19 21 23 23 25 27 29 31 32 33 33 32 32 32 32 32 32 33 34 34 34 34 34 33 33 32 31 31 30 27 24 23 23 24 23 23 25 27 29 34 39 38 37 38 38 37 38 36 33 32 27 23 26 28 27 27 25 24 25 26 26 27 27 26 26 25 24 25 25 25 28 28 25 25 28 29 28 26 23 20 18 19 19 19
18 18 19 21 22 24 26 28 30 31 32 32 31 32 34 34 34 33 34 34 33 32 31 28 27 29 29 28 28 26 24 23 24 24 23 22 23 24 23 24 28 32 29 25 23 26 30 32 29 26 26 24 22 25 27 26 26 25 24 24 24 24 25 25 26 27 25 23 25 26 28 30 29 25 24 24 23 21 19 17 17 18 18 18 18
17 18 19 21 23 24 26 28 29 29 29 29 30 32 35 35 35 35 35 34 32 31 29 26 26 27 25 22 22 22 23 25 25 25 23 23 23 22 21 22 24 25 24 20 19 22 26 25 21 19 21 20 19 22 25 25 23 22 22 22 22 21 22 23 23 23 22 22 24 25 25 25 23 20 19 18 17 18 18 17 17 16 17 19 20
17 18 19 21 23 25 27 28 31 31 29 29 30 31 32 33 34 34 33 32 31 30 29 27 25 22 20 20 20 22 25 26 26 25 23 22 21 18 17 19 19 17 17 18 18 19 18 16 16 17 17 15 15 19 23 21 19 18 18 19 20 20 20 20 21 21 21 21 21 20 18 17 16 16 15 15 17 18 18 17 17 16 17 19 21
16 17 19 21 23 24 24 25 28 30 30 31 32 31 31 32 34 33 31 31 30 27 24 24 23 21 22 22 21 21 25 28 27 24 21 19 18 18 17 17 16 14 15 15 15 13 12 13 15 15 13 12 11 14 18 18 16 16 17 18 19 18 18 19 21 22 21 19 16 15 13 12 13 14 14 16 17 18 17 17 18 17 18 19 21
16 18 21 21 22 23 23 23 26 29 30 31 31 31 31 31 30 31 31 30 28 26 24 25 25 26 26 23 21 24 28 29 26 23 21 20 20 20 19 17 14 15 16 15 13 12 12 14 14 12 12 11 10 11 15 16 15 15 16 17 18 19 20 21 21 21 19 16 13 12 12 11 12 14 15 17 17 17 17 16 16 17 19 20 21
17 20 21 22 23 24 25 25 27 29 29 29 31 33 32 29 28 29 31 30 29 28 28 27 28 28 24 20 22 29 31 29 26 25 24 22 20 20 20 18 16 16 16 15 14 14 14 14 13 12 10 10 12 14 15 14 13 13 15 18 19 21 21 20 18 17 15 13 12 12 12 11 13 15 16 17 17 16 16 16 16 18 19 19 20
19 21 21 24 27 28 27 27 27 27 27 30 34 35 32 28 28 29 30 30 29 29 28 27 27 26 21 19 24 30 29 26 25 23 21 21 21 21 21 19 18 16 14 13 14 14 14 14 13 13 12 12 15 16 13 13 13 14 16 17 18 18 18 17 15 14 12 11 12 12 12 13 14 16 16 16 16 17 16 16 16 16 17 17 18
21 23 24 26 28 28 27 27 26 27 28 30 33 33 30 27 27 29 31 31 29 27 27 27 26 25 22 22 27 28 25 23 22 21 22 24 25 24 22 21 19 16 13 13 14 13 13 13 13 13 13 14 16 14 12 13 15 15 17 17 17 17 16 15 14 13 11 10 10 11 12 14 15 16 16 16 17 18 17 16 14 14 14 14 12
22 24 26 26 27 28 28 27 27 27 29 29 29 30 30 29 30 31 31 29 26 25 25 24 21 21 22 24 26 25 23 22 22 22 25 27 25 22 21 20 18 14 13 14 14 13 14 13 13 13 13 13 13 13 12 13 15 16 17 17 16 16 14 14 15 12 9 9 11 12 13 14 14 15 15 16 16 15 15 15 13 12 12 10 8
23 24 25 25 26 26 26 24 22 22 25 27 26 25 27 29 30 29 27 24 22 23 23 20 17 18 20 21 23 22 21 20 20 19 21 22 21 18 18 17 15 14 14 15 14 14 14 13 13 13 12 12 12 13 13 13 14 15 16 14 14 15 14 14 13 11 9 10 11 12 13 14 15 15 14 13 12 12 13 15 13 12 12 10 9
23 23 23 23 23 23 23 22 21 19 20 23 24 24 24 25 27 27 27 26 25 23 21 20 19 20 20 20 20 20 19 18 18 18 19 20 19 17 15 15 15 14 14 15 14 14 14 13 13 13 12 12 13 13 13 13 14 14 14 14 14 14 13 12 10 10 11 12 12 13 15 15 14 11 9 9 11 11 11 11 11 10 10 11 14
21 22 23 22 22 21 21 21 20 18 18 18 19 21 22 23 23 23 24 25 24 22 21 21 21 21 21 20 18 18 19 19 20 22 23 22 21 20 17 16 17 17 16 15 14 13 13 13 12 12 13 14 14 13 13 13 13 13 13 14 14 14 12 11 11 12 12 11 11 13 15 13 9 7 7 10 12 11 10 10 11 11 12 13 14
19 20 20 20 19 19 18 18 18 16 16 16 16 17 18 19 18 17 17 19 21 21 21 20 20 21 21 20 18 19 20 22 23 25 26 25 23 23 21 18 18 18 17 15 13 13 14 13 11 12 14 14 12 12 13 13 13 13 13 13 14 13 12 13 13 13 11 9 8 10 11 10 9 10 11 12 12 12 12 12 13 14 14 14 14
18 18 18 17 17 16 15 16 15 15 16 18 18 18 17 17 17 17 18 19 20 21 21 20 19 20 20 19 20 21 21 22 23 24 26 26 24 22 20 17 15 14 14 13 12 13 15 15 13 12 13 12 11 12 13 13 12 12 12 13 14 16 17 16 14 12 11 9 9 10 11 10 10 10 12 12 12 12 12 12 13 14 14 14 14
Wind_Direction
196 194 194 193 193 193 193 193 194 196 198 199 201 203 205 206 206 211 214 211 209 212 216 218 218 221 223 225 229 233 234 233 240 245 245 245 249 253 254 252 253 255 255 255 259 268 274 273 274 274 274 283 287 277 280 303 304 308 328 330 327 328 320 306 288 293 294 292 301 291 276 284 303 342 15 44 48 65 70 56 55 46 40 37 21
195 193 193 194 193 193 193 193 194 196 198 200 201 203 204 205 206 210 214 214 213 213 216 217 218 219 220 223 227 231 232 234 241 246 244 242 245 249 250 251 253 255 256 258 265 272 275 273 278 278 271 278 287 285 302 317 318 319 323 325 322 313 310 297 287 287 293 311 313 310 298 248 231 332 13 60 57 74 83 64 57 43 35 41 39
196 192 192 193 193 193 193 194 196 196 198 200 201 202 204 206 208 211 213 214 215 216 217 217 219 220 219 222 226 227 229 234 238 241 242 242 244 245 245 247 253 259 260 262 266 269 271 272 277 274 269 283 289 290 311 319 309 305 311 319 311 300 297 276 262 260 271 324 312 302 295 237 211 196 166 132 64 92 96 66 54 17 4 31 48
197 193 192 193 194 194 195 195 196 197 197 199 200 201 204 207 208 210 212 214 215 217 218 217 219 220 219 220 223 226 226 226 230 235 239 242 245 247 246 246 254 261 261 260 261 264 269 275 275 266 270 285 291 302 315 306 294 295 294 286 284 298 306 292 284 285 289 320 306 294 287 277 251 149 154 132 70 105 112 69 63 26 342 12 33
199 195 193 193 194 195 196 197 196 197 198 199 200 201 203 206 209 211 212 214 215 216 217 216 217 219 219 220 222 227 226 221 227 236 242 246 246 248 252 253 253 249 246 249 253 259 270 275 272 270 277 285 294 305 302 289 287 282 273 271 280 288 289 299 315 324 292 275 292 287 282 298 339 32 102 122 113 127 129 59 56 78 342 358 18
200 197 195 194 196 196 196 197 197 198 199 199 200 201 203 205 209 213 214 215 216 217 219 218 218 220 220 219 221 225 227 228 235 240 244 248 244 244 251 249 243 235 230 236 241 250 260 260 263 270 282 291 291 280 281 303 306 289 284 293 291 277 261 286 301 295 286 309 23 273 271 319 358 1 14 110 153 160 149 316 20 61 9 3 26
202 198 196 196 198 197 197 197 198 200 199 198 200 201 203 206 209 212 214 214 216 216 217 220 220 221 220 222 225 226 226 232 239 236 230 235 228 227 243 239 226 220 216 228 235 243 252 253 261 270 289 296 293 287 314 328 309 299 298 285 260 262 267 260 275 269 271 291 228 225 234 139 75 44 18 53 153 184 191 234 97 56 23 352 6
203 199 198 198 199 199 198 198 199 200 200 198 199 200 203 206 209 211 213 214 215 214 215 219 220 219 221 222 223 223 224 228 230 222 212 221 221 213 224 224 210 210 210 220 232 238 243 247 251 257 286 288 285 308 340 335 305 303 290 287 274 269 270 236 248 253 252 282 240 200 190 107 69 67 23 5 302 276 251 223 234 338 339 296 283
206 201 200 200 200 200 199 198 199 199 200 200 200 200 202 205 206 210 212 212 212 213 215 218 218 217 218 218 218 218 221 221 221 218 211 216 221 212 213 215 209 217 217 216 226 230 234 240 251 270 289 283 286 322 331 300 283 286 286 311 329 304 276 249 251 252 247 304 284 183 130 63 53 357 300 341 294 279 260 255 286 291 296 280 278
211 203 201 201 200 201 200 199 199 200 200 201 200 200 201 204 205 209 211 211 212 213 214 215 216 216 215 214 216 216 218 220 218 213 210 215 219 216 222 223 214 222 225 225 226 225 235 237 250 287 287 276 260 250 278 285 283 278 262 269 259 248 277 274 268 272 271 297 293 162 107 94 255 256 276 281 248 267 274 277 289 292 296 298 293
214 204 200 200 201 200 200 200 199 200 200 200 200 201 201 203 205 207 211 213 212 210 209 209 214 219 218 215 215 215 216 217 211 207 210 217 215 211 221 224 215 210 209 226 231 229 241 235 208 257 263 249 245 231 238 275 287 276 243 241 231 217 249 266 255 268 279 279 278 302 316 272 281 278 282 289 281 281 282 284 294 302 304 302 300
213 207 200 196 198 198 198 200 199 199 199 200 200 200 201 202 203 205 209 212 209 206 206 206 211 217 219 216 214 214 213 208 206 208 212 217 212 202 212 220 215 206 199 217 234 229 231 225 208 231 239 230 233 226 226 233 231 244 244 241 238 214 210 221 232 247 272 274 265 278 281 269 277 277 268 278 283 282 285 290 295 302 302 295 298
208 210 205 196 195 196 197 198 198 198 198 199 200 200 201 201 202 204 206 209 209 207 208 208 210 214 216 215 214 213 209 203 205 209 211 215 212 203 207 216 213 207 206 207 206 203 216 230 225 222 228 229 220 213 223 220 204 209 229 229 234 242 228 222 231 236 254 269 266 266 271 274 281 281 270 268 271 279 292 299 294 298 298 294 296
202 205 208 200 195 194 195 196 196 198 198 198 199 199 200 200 201 203 204 207 209 206 205 206 208 211 214 215 214 212 209 206 206 206 205 207 210 205 199 206 212 209 207 199 189 201 218 231 233 228 230 231 222 217 220 220 212 203 208 220 227 247 249 236 242 246 246 256 264 264 265 268 275 276 273 271 272 275 283 289 290 291 291 293 295
199 203 208 203 197 193 194 195 195 196 196 197 198 198 200 200 200 201 202 204 206 203 201 202 204 207 210 213 213 212 210 209 208 208 205 202 205 204 193 193 203 200 198 197 196 206 214 223 230 232 233 233 232 230 220 220 228 216 210 214 216 236 247 241 240 241 245 253 255 258 261 264 274 277 273 270 268 268 272 276 279 284 291 297 299
198 202 208 204 198 193 192 194 194 195 195 196 198 197 198 199 200 201 201 202 203 203 201 201 202 203 205 210 212 212 212 210 209 211 209 203 202 201 197 196 195 191 193 192 196 204 208 219 227 228 230 229 230 230 216 213 228 229 223 219 218 231 245 249 247 240 245 257 262 265 265 259 257 258 261 266 266 265 270 274 273 277 286 292 297
199 202 208 204 198 194 193 193 193 194 195 196 197 197 196 198 199 201 201 201 201 203 203 203 203 203 204 209 212 213 214 212 210 211 208 202 202 203 202 200 194 191 192 187 193 204 210 220 227 225 225 222 222 227 220 212 219 225 224 225 229 231 242 255 261 254 245 247 254 260 265 268 267 262 264 269 268 268 274 280 280 280 283 284 290
205 204 206 204 199 196 194 193 194 194 194 195 195 196 196 197 199 200 201 201 201 202 203 204 204 204 203 206 212 215 216 215 211 209 207 200 200 203 199 191 192 197 196 190 196 209 221 230 226 220 222 224 221 225 228 224 222 223 221 224 230 229 235 251 265 270 263 254 253 252 255 264 270 269 269 267 265 272 280 283 281 282 283 283 287
210 204 204 203 199 198 196 194 195 195 195 194 194 195 196 198 199 200 202 202 202 202 202 204 205 206 204 205 211 216 216 216 212 206 204 200 200 201 193 184 195 204 204 213 231 234 236 234 224 220 223 226 223 222 227 230 229 228 226 227 230 230 234 243 254 265 271 268 265 262 258 258 259 260 261 259 262 268 272 273 277 283 285 284 288
214 207 203 202 199 198 197 195 194 194 194 193 193 195 197 198 199 200 202 202 202 202 202 203 204 206 205 204 209 214 216 217 213 204 200 200 200 197 188 187 202 208 215 243 261 262 250 233 223 221 221 222 225 228 230 230 231 233 231 231 232 232 238 243 245 247 251 257 259 259 260 261 261 260 260 261 264 265 268 270 272 278 278 278 286
218 214 205 201 199 200 197 196 194 191 192 192 194 196 197 199 200 201 201 201 202 202 201 202 203 204 206 206 207 213 216 215 211 206 203 200 200 199 194 196 205 209 220 241 252 254 249 239 229 226 226 225 227 234 238 231 232 237 236 236 235 234 236 239 242 243 243 246 248 250 255 258 260 261 261 266 268 268 276 280 278 283 285 282 287
212 217 213 202 197 199 197 195 193 191 193 193 194 196 196 199 201 200 202 203 202 202 202 203 203 203 207 207 206 210 214 213 210 209 208 206 209 210 207 207 212 218 230 243 248 249 247 241 236 234 234 229 229 236 240 233 233 236 237 239 241 241 242 241 242 245 245 245 244 244 249 253 257 260 261 266 268 262 267 271 270 279 284 280 285
201 212 220 208 196 197 194 193 193 193 195 194 193 195 196 199 200 200 203 203 201 201 203 206 205 204 207 208 206 208 210 209 207 208 209 211 214 215 214 216 222 229 239 245 248 250 249 245 242 241 238 231 230 235 238 236 237 237 236 238 238 239 242 243 244 243 242 244 245 245 248 250 252 255 259 267 267 255 256 263 266 270 274 277 282
195 207 219 211 198 196 192 192 195 195 195 195 194 195 196 198 200 201 203 202 200 200 202 206 207 207 208 208 208 207 207 207 207 208 211 212 215 217 217 220 227 236 245 249 251 253 252 248 246 246 242 237 234 236 239 242 241 236 237 240 239 239 239 241 245 243 239 241 245 247 249 249 251 253 256 261 259 254 261 271 278 277 272 277 284
195 206 215 208 199 196 194 194 196 196 194 194 196 195 195 198 199 200 202 201 199 198 199 202 205 207 208 209 208 204 204 208 206 205 211 215 217 218 218 222 230 238 245 248 252 256 254 250 248 248 247 244 242 240 243 248 244 235 238 242 242 243 244 246 251 247 239 238 241 245 249 251 254 256 257 258 257 260 268 275 285 285 276 281 291
210 212 210 206 201 197 196 197 197 196 194 194 196 195 195 197 199 200 200 198 196 196 199 199 200 205 208 209 208 204 207 213 206 200 209 217 218 216 220 228 235 240 244 246 251 257 257 253 249 249 250 248 245 242 243 249 243 232 237 243 243 243 245 249 253 248 241 241 242 246 251 252 252 256 260 263 264 268 271 272 279 281 278 284 294
221 215 208 205 202 199 199 199 197 195 194 195 196 195 196 197 198 200 199 196 194 197 202 201 201 208 209 208 210 210 214 218 210 204 212 219 219 219 225 235 239 241 242 243 247 254 258 256 252 251 253 253 250 245 243 245 240 231 235 242 243 242 242 246 250 246 242 245 249 254 258 259 261 266 266 267 269 271 271 273 277 278 279 287 294
218 207 207 205 201 200 200 198 196 194 194 196 196 195 197 198 197 198 197 194 194 200 203 200 203 213 213 209 210 211 213 215 211 211 217 222 223 224 230 237 240 242 242 240 242 249 255 257 255 254 253 253 251 247 242 240 237 232 235 240 243 243 243 247 250 246 243 243 247 251 254 257 263 266 264 265 267 267 271 278 283 281 281 285 289
215 204 202 205 203 202 200 197 195 194 194 194 194 196 198 198 198 198 197 195 197 201 202 199 204 212 213 212 212 208 209 212 213 217 222 226 228 230 233 236 240 243 243 242 242 244 248 255 259 257 253 250 250 248 243 241 237 233 235 239 242 245 248 251 253 251 247 244 243 248 253 256 257 258 260 261 262 265 272 280 281 279 281 284 286
216 212 200 204 209 204 199 195 193 192 191 190 192 196 197 198 198 197 196 196 197 199 199 200 206 212 214 214 213 209 209 212 216 221 227 230 230 232 234 236 239 243 243 244 243 240 242 251 258 257 254 252 251 250 247 246 242 238 240 242 245 247 249 250 253 253 250 248 246 247 251 255 259 265 271 270 266 267 272 277 276 277 281 283 284
230 229 208 207 213 206 198 193 191 190 190 190 193 195 196 196 196 196 195 195 196 197 197 199 203 207 209 208 207 209 213 215 219 223 228 231 231 233 235 237 241 244 242 242 242 239 238 245 250 252 254 254 254 252 252 251 249 244 243 245 247 248 246 245 246 247 249 251 250 248 250 257 263 271 277 278 277 277 279 280 278 277 280 280 277
235 221 213 212 211 206 200 196 193 192 191 192 194 194 194 195 195 195 195 194 194 197 199 201 202 203 205 206 206 209 215 220 224 227 230 232 231 232 235 237 242 244 240 240 242 240 239 243 246 249 253 254 255 255 254 252 248 245 245 246 246 246 245 243 241 241 244 247 250 254 258 263 267 272 278 283 287 288 288 286 284 284 286 284 276
224 209 219 213 206 206 205 200 197 194 192 193 194 193 192 192 192 192 193 192 192 192 193 196 199 201 205 206 206 211 217 224 230 233 233 231 229 230 234 237 239 239 238 239 241 241 240 242 245 248 250 252 253 254 255 251 245 244 246 245 244 244 244 245 245 243 243 247 252 258 260 263 266 271 278 284 289 290 289 290 292 294 293 289 280
223 223 231 216 205 208 207 203 199 196 193 192 191 190 188 187 187 188 190 192 190 184 185 193 197 200 205 208 211 218 224 227 230 232 231 229 228 230 233 235 236 236 236 238 239 239 240 243 245 246 248 249 247 246 251 251 246 245 246 245 244 245 244 245 245 245 248 253 257 260 262 265 269 273 278 285 289 290 290 292 295 294 291 289 287
216 223 225 214 207 206 203 202 200 196 192 189 187 187 184 182 183 184 185 188 185 177 184 196 200 200 205 210 214 218 222 224 226 228 230 230 230 231 232 234 235 235 235 237 237 238 240 242 243 245 248 249 242 237 246 253 251 250 248 244 243 243 242 243 246 249 254 257 258 259 264 270 275 280 285 288 288 289 291 293 292 288 284 289 291
215 212 211 211 211 206 201 199 196 193 190 187 185 185 183 181 181 180 180 182 181 176 183 196 201 202 205 207 209 212 215 216 217 221 225 228 228 229 232 234 234 234 235 237 238 238 240 243 245 247 250 251 245 243 250 257 256 251 244 241 242 242 241 243 246 250 255 257 259 264 273 283 286 285 286 287 287 290 292 291 289 286 285 287 287
223 213 211 216 214 204 196 192 189 187 187 186 184 181 178 176 176 175 175 177 177 176 182 192 198 201 203 205 207 208 208 205 205 209 212 214 216 220 224 230 234 234 233 236 238 238 241 246 249 253 255 254 246 246 253 259 256 247 239 240 243 242 243 245 247 251 256 262 268 273 281 287 286 281 282 286 289 292 293 290 288 287 282 279 278
219 211 208 208 204 196 191 188 186 185 184 182 180 175 172 171 171 171 172 173 173 176 181 185 188 192 197 200 198 195 192 191 193 194 194 196 200 206 211 218 227 231 229 228 232 236 242 249 252 253 255 250 241 243 252 258 255 247 239 241 245 246 248 249 248 251 258 268 275 278 279 281 280 279 282 285 287 290 292 290 287 283 279 277 279
214 207 201 198 194 189 185 182 180 180 180 178 176 173 170 169 169 169 170 169 170 176 179 179 183 188 189 185 178 175 178 183 184 182 184 189 192 196 203 208 215 222 224 223 227 234 241 246 247 243 244 242 236 241 251 253 250 245 241 242 244 244 246 250 252 256 263 269 272 274 275 277 279 279 280 281 285 290 292 290 284 279 278 280 280
210 204 195 188 185 181 180 179 177 175 175 174 173 172 169 166 163 164 164 164 169 176 178 176 178 177 173 170 171 174 176 177 177 179 183 188 189 190 196 199 200 206 212 215 220 227 231 233 235 238 241 239 232 236 244 245 241 240 236 233 237 242 247 251 254 259 264 265 265 266 272 279 282 279 277 281 287 290 290 287 280 274 275 277 277
203 194 183 177 175 176 178 179 176 171 169 168 167 165 164 162 158 157 159 161 167 171 169 167 166 164 165 169 172 174 175 175 176 178 180 183 186 186 186 185 183 187 196 206 213 218 222 225 231 235 236 236 233 234 239 241 240 235 229 228 236 245 247 244 246 253 259 261 260 263 269 276 278 279 283 287 290 291 290 284 277 274 277 280 283
185 177 171 166 165 168 170 169 165 162 160 160 159 157 156 154 151 152 156 158 160 161 160 161 164 164 166 168 171 174 176 176 175 176 178 181 185 187 185 178 176 182 192 200 204 207 216 221 223 225 226 230 236 236 235 239 241 233 226 230 237 238 237 238 244 253 258 256 252 256 262 271 279 285 290 292 293 293 290 286 283 284 285 285 287
163 163 163 159 157 157 157 155 155 155 155 155 155 153 150 147 147 151 155 156 157 160 162 163 165 166 166 169 175 177 176 175 175 176 180 182 185 189 187 178 175 186 195 197 196 200 210 216 218 220 217 216 230 239 235 231 229 225 229 239 239 235 238 245 250 253 251 241 232 239 258 275 283 289 293 295 297 297 294 293 292 288 287 288 288
157 154 151 149 148 146 146 147 148 149 148 149 152 152 149 147 149 155 159 159 160 162 163 163 167 169 167 169 174 175 174 175 176 177 181 185 187 190 189 182 181 188 191 190 192 199 207 210 212 214 210 211 226 236 228 218 224 234 241 242 236 232 238 245 246 244 241 234 234 249 272 285 287 291 297 298 299 299 297 296 293 289 289 291 294
142 135 129 129 131 130 130 132 134 138 141 145 149 150 146 146 153 161 165 164 164 165 166 170 174 174 169 168 170 171 171 174 177 180 188 194 195 194 191 188 187 188 186 190 197 200 202 203 205 208 209 215 227 231 221 219 228 236 237 232 227 232 239 238 232 232 236 243 254 265 275 281 287 293 297 299 301 301 299 294 288 288 294 297 302
127 123 119 118 119 122 124 126 131 139 143 144 146 149 152 156 160 164 167 167 168 170 173 176 177 173 169 167 166 166 168 173 179 186 195 199 197 194 194 193 191 190 192 196 198 196 197 200 203 206 206 210 219 224 224 228 230 227 226 225 225 231 233 223 220 228 241 257 269 271 270 278 288 292 297 304 309 310 311 306 297 298 313 324 320
112 114 116 115 114 116 118 118 122 134 143 145 147 151 156 160 163 165 167 169 171 174 176 176 171 168 168 166 163 163 166 170 173 180 192 197 193 188 192 195 193 192 196 197 195 195 198 202 206 209 208 206 211 214 218 227 228 222 220 224 227 228 223 215 220 234 245 254 267 276 281 289 293 294 302 315 320 322 327 329 324 321 328 331 308
98 102 107 109 109 111 113 115 117 125 141 153 158 160 161 164 168 171 173 173 171 169 170 170 168 169 172 170 164 161 162 164 167 174 184 190 189 187 190 194 192 193 195 196 197 201 205 208 212 214 212 211 213 213 210 212 218 222 224 227 225 220 215 213 222 238 251 263 281 293 299 302 298 292 301 316 318 316 316 320 324 319 308 299 294
90 95 101 106 111 116 120 125 128 132 141 149 153 157 160 161 163 166 170 169 164 160 160 164 166 170 174 172 165 161 161 165 173 180 184 186 187 187 189 191 192 195 197 198 202 207 209 212 218 220 214 211 211 211 208 211 223 234 235 232 228 222 217 216 218 227 245 270 291 299 303 303 291 273 277 292 296 293 288 290 300 302 297 294 295
87 91 97 103 110 116 121 123 123 129 134 132 130 137 145 149 151 156 163 162 156 154 158 162 164 167 170 168 163 163 167 172 180 186 187 187 188 189 190 192 194 196 198 201 207 211 208 209 215 214 209 209 212 217 223 230 239 243 239 236 233 224 214 213 221 234 251 265 272 276 279 276 267 265 274 284 285 282 284 287 290 295 297 296 293
85 86 89 95 101 108 116 117 118 124 125 120 121 127 133 141 150 159 166 165 158 156 158 158 160 164 166 163 162 165 169 174 181 187 189 190 191 191 193 198 201 203 206 213 220 215 204 204 210 207 204 211 220 225 231 237 239 237 232 223 214 209 210 219 234 253 268 266 260 265 267 264 264 270 279 286 284 282 285 286 287 292 295 293 294
Height
1510 1513 1516 1518 1520 1523 1525 1527 1529 1531 1533 1534 1536 1537 1538 1540 1541 1543 1545 1547 1548 1550 1551 1552 1554 1555 1557 1558 1559 1559 1561 1562 1562 1563 1564 1565 1565 1565 1566 1567 1568 1568 1569 1570 1570 1571 1571 1572 1571 1571 1571 1571 1571 1572 1572 1573 1572 1572 1572 1571 1571 1571 1571 1571 1571 1571 1571 1572 1572 1572 1572 1572 1571 1571 1571 1572 1572 1573 1573 1573 1573 1573 1573 1572 1571
1508 1511 1513 1515 1518 1520 1522 1524 1526 1528 1530 1531 1533 1534 1536 1538 1539 1541 1543 1545 1546 1547 1549 1550 1552 1553 1555 1556 1557 1558 1559 1560 1561 1562 1563 1563 1564 1564 1564 1565 1566 1567 1568 1569 1569 1569 1570 1570 1570 1569 1569 1570 1570 1571 1571 1571 1572 1572 1572 1571 1571 1571 1571 1571 1571 1571 1571 1571 1571 1571 1571 1571 1571 1571 1572 1572 1573 1573 1573 1573 1573 1573 1573 1572 1572
1504 1507 1510 1512 1515 1517 1519 1521 1523 1525 1527 1529 1531 1532 1534 1535 1537 1539 1540 1542 1544 1545 1547 1549 1550 1552 1554 1555 1557 1558 1559 1560 1560 1561 1561 1562 1562 1563 1563 1564 1565 1566 1567 1567 1568 1568 1568 1568 1568 1569 1569 1569 1570 1570 1571 1571 1572 1572 1571 1571 1571 1571 1571 1570 1570 1570 1570 1571 1571 1570 1571 1570 1570 1571 1572 1573 1573 1573 1573 1573 1573 1573 1572 1572 1572
1500 1503 1506 1509 1512 1514 1516 1517 1520 1522 1524 1526 1527 1529 1531 1532 1534 1536 1538 1540 1541 1543 1545 1547 1549 1550 1552 1554 1555 1557 1557 1558 1559 1559 1560 1560 1561 1561 1562 1563 1564 1565 1565 1566 1566 1567 1567 1567 1568 1568 1569 1569 1570 1570 1570 1571 1571 1571 1571 1571 1571 1571 1571 1570 1570 1570 1570 1570 1570 1570 1570 1570 1570 1571 1572 1572 1572 1573 1573 1573 1573 1573 1572 1572 1572
1496 1499 1502 1505 1508 1510 1512 1514 1516 1519 1520 1522 1524 1526 1527 1529 1531 1533 1535 1538 1539 1541 1543 1545 1547 1549 1550 1552 1554 1555 1555 1556 1556 1557 1558 1559 1560 1560 1561 1562 1563 1563 1564 1565 1565 1566 1566 1566 1568 1568 1569 1569 1569 1570 1570 1571 1571 1571 1570 1570 1570 1570 1571 1570 1570 1570 1570 1569 1570 1570 1570 1570 1570 1571 1571 1571 1572 1572 1573 1573 1573 1573 1572 1572 1572
1492 1495 1498 1502 1504 1506 1508 1511 1513 1515 1517 1519 1521 1523 1525 1527 1529 1531 1533 1535 1537 1539 1541 1543 1545 1547 1548 1550 1551 1552 1553 1554 1555 1556 1557 1558 1559 1560 1560 1560 1561 1562 1563 1564 1565 1565 1566 1566 1568 1568 1568 1569 1569 1570 1570 1570 1570 1570 1570 1570 1570 1570 1570 1570 1570 1570 1570 1569 1569 1569 1569 1570 1570 1570 1570 1571 1571 1572 1572 1572 1572 1573 1573 1572 1572
1488 1491 1494 1497 1500 1502 1504 1506 1509 1512 1514 1517 1519 1521 1523 1525 1527 1528 1531 1533 1535 1537 1539 1541 1542 1544 1546 1548 1549 1551 1552 1553 1554 1555 1556 1558 1558 1559 1559 1559 1560 1561 1562 1563 1564 1565 1565 1566 1567 1568 1568 1568 1569 1569 1570 1570 1570 1570 1570 1570 1570 1569 1569 1570 1570 1569 1569 1569 1570 1570 1569 1569 1570 1570 1570 1570 1571 1571 1572 1572 1572 1572 1573 1573 1573
1484 1487 1489 1491 1495 1498 1500 1502 1505 1509 1512 1514 1516 1518 1520 1522 1524 1526 1528 1530 1532 1535 1536 1538 1540 1542 1544 1546 1548 1549 1550 1552 1553 1554 1555 1556 1557 1558 1558 1559 1560 1561 1562 1563 1563 1564 1564 1565 1566 1567 1568 1569 1569 1569 1569 1569 1569 1569 1569 1569 1569 1569 1569 1569 1569 1569 1569 1569 1569 1569 1569 1569 1569 1570 1570 1570 1570 1571 1570 1571 1571 1571 1572 1573 1572
1481 1482 1485 1487 1491 1494 1496 1499 1502 1506 1509 1511 1513 1515 1517 1519 1521 1523 1525 1528 1529 1532 1534 1536 1538 1540 1542 1544 1546 1547 1549 1551 1552 1553 1554 1555 1556 1557 1558 1558 1559 1560 1561 1562 1562 1563 1564 1565 1565 1566 1568 1568 1568 1569 1569 1569 1569 1568 1568 1568 1568 1569 1569 1569 1569 1569 1569 1569 1568 1568 1569 1569 1570 1570 1570 1570 1570 1570 1570 1570 1570 1571 1571 1571 1571
1478 1478 1481 1484 1487 1490 1494 1496 1499 1502 1505 1508 1510 1512 1515 1516 1518 1520 1522 1525 1527 1529 1531 1533 1536 1538 1540 1542 1544 1546 1547 1549 1550 1552 1553 1554 1554 1556 1557 1557 1558 1559 1560 1561 1562 1563 1563 1564 1566 1567 1567 1567 1568 1568 1569 1568 1568 1567 1567 1568 1568 1568 1569 1569 1569 1569 1569 1569 1568 1568 1569 1569 1570 1570 1570 1570 1570 1570 1570 1570 1570 1569 1569 1570 1570
1477 1475 1477 1481 1484 1487 1491 1493 1496 1499 1502 1505 1507 1509 1512 1513 1515 1517 1519 1522 1524 1526 1529 1531 1533 1535 1538 1540 1542 1544 1546 1547 1549 1551 1552 1552 1553 1555 1555 1556 1558 1559 1560 1560 1561 1562 1562 1563 1566 1567 1566 1566 1566 1567 1568 1568 1568 1567 1567 1567 1567 1567 1568 1568 1569 1569 1569 1569 1568 1568 1569 1569 1569 1569 1569 1569 1569 1569 1569 1569 1569 1568 1569 1569 1569
1476 1475 1474 1477 1480 1483 1486 1489 1492 1495 1498 1500 1503 1506 1508 1510 1512 1514 1516 1519 1521 1524 1526 1528 1531 1533 1535 1538 1540 1542 1544 1546 1548 1549 1550 1551 1552 1554 1554 1555 1556 1558 1559 1560 1560 1561 1562 1563 1564 1565 1565 1565 1565 1565 1566 1566 1567 1567 1567 1566 1566 1567 1567 1568 1568 1569 1569 1568 1568 1569 1569 1569 1568 1568 1568 1568 1568 1568 1568 1568 1568 1568 1568 1567 1567
1471 1474 1474 1473 1475 1477 1480 1484 1487 1490 1493 1496 1499 1502 1504 1506 1509 1511 1513 1515 1518 1521 1523 1526 1528 1530 1533 1535 1538 1540 1542 1544 1546 1548 1549 1550 1551 1552 1553 1554 1555 1557 1558 1559 1561 1562 1562 1563 1563 1564 1564 1564 1563 1564 1564 1564 1565 1566 1566 1566 1567 1567 1567 1567 1567 1568 1568 1568 1568 1568 1568 1568 1568 1568 1568 1568 1567 1567 1567 1567 1567 1567 1567 1566 1566
1463 1468 1472 1471 1469 1472 1475 1478 1481 1484 1488 1491 1494 1497 1500 1503 1505 1508 1510 1512 1515 1518 1520 1523 1525 1528 1530 1533 1536 1538 1540 1542 1545 1546 1548 1549 1550 1551 1553 1554 1555 1556 1557 1559 1560 1562 1563 1563 1563 1563 1563 1563 1562 1563 1563 1563 1563 1564 1565 1566 1566 1567 1566 1567 1567 1567 1567 1567 1567 1567 1567 1568 1568 1567 1567 1567 1567 1567 1566 1566 1566 1566 1566 1565 1565
1457 1462 1468 1467 1464 1466 1469 1472 1475 1479 1482 1486 1490 1493 1496 1499 1501 1504 1507 1509 1512 1515 1518 1520 1523 1525 1528 1531 1534 1536 1538 1540 1542 1544 1546 1548 1549 1551 1553 1554 1555 1556 1557 1558 1560 1561 1562 1562 1562 1562 1562 1561 1561 1561 1561 1562 1562 1562 1563 1564 1564 1565 1565 1565 1565 1565 1566 1566 1566 1566 1566 1566 1566 1567 1567 1566 1566 1566 1566 1566 1565 1565 1565 1564 1564
1451 1455 1459 1461 1461 1462 1464 1467 1470 1474 1477 1481 1484 1488 1491 1495 1498 1500 1503 1506 1509 1512 1515 1518 1520 1523 1526 1529 1531 1534 1536 1538 1540 1542 1544 1546 1548 1550 1552 1554 1555 1556 1557 1558 1559 1560 1560 1561 1561 1561 1560 1560 1560 1560 1560 1561 1561 1561 1561 1562 1562 1563 1564 1564 1563 1564 1564 1564 1564 1564 1564 1564 1564 1565 1565 1565 1565 1564 1564 1564 1564 1564 1564 1563 1563
1444 1447 1451 1455 1458 1459 1460 1462 1465 1468 1472 1475 1479 1483 1486 1491 1494 1497 1500 1504 1506 1509 1512 1515 1518 1521 1523 1526 1529 1531 1533 1536 1537 1540 1542 1545 1547 1549 1551 1553 1554 1555 1556 1557 1558 1558 1559 1560 1560 1559 1559 1559 1559 1559 1559 1559 1560 1559 1559 1560 1560 1561 1562 1562 1562 1562 1562 1563 1563 1563 1563 1562 1562 1562 1562 1562 1563 1562 1562 1562 1562 1562 1562 1562 1562
1441 1443 1448 1452 1454 1455 1456 1458 1461 1463 1467 1470 1474 1479 1483 1487 1490 1493 1496 1500 1503 1506 1509 1512 1515 1519 1521 1524 1526 1528 1531 1533 1535 1538 1541 1544 1546 1547 1550 1552 1553 1554 1554 1555 1556 1557 1557 1557 1558 1558 1558 1558 1558 1558 1558 1558 1558 1558 1558 1558 1559 1559 1560 1560 1561 1561 1561 1561 1561 1562 1561 1561 1560 1560 1561 1561 1561 1560 1560 1560 1560 1560 1560 1560 1560
1438 1440 1445 1447 1449 1451 1452 1455 1458 1461 1464 1468 1472 1476 1479 1483 1487 1490 1493 1496 1501 1504 1507 1510 1513 1516 1519 1521 1523 1526 1528 1531 1534 1537 1539 1542 1545 1546 1549 1551 1551 1551 1552 1553 1554 1554 1554 1554 1554 1555 1556 1556 1555 1556 1556 1556 1556 1557 1557 1557 1557 1557 1558 1559 1559 1560 1560 1561 1561 1560 1560 1560 1560 1559 1559 1560 1559 1559 1559 1558 1558 1558 1558 1558 1557
1437 1439 1441 1441 1443 1445 1447 1450 1454 1458 1462 1465 1469 1472 1476 1480 1483 1487 1491 1494 1498 1501 1504 1508 1510 1513 1516 1518 1521 1523 1526 1529 1532 1535 1538 1541 1543 1544 1547 1548 1547 1548 1549 1550 1550 1549 1548 1548 1548 1549 1551 1552 1551 1551 1552 1553 1554 1555 1556 1556 1556 1557 1557 1557 1558 1558 1559 1560 1560 1559 1559 1558 1558 1558 1558 1558 1557 1557 1557 1557 1556 1556 1556 1556 1555
1438 1439 1438 1436 1439 1441 1444 1448 1451 1455 1459 1461 1465 1469 1472 1477 1479 1483 1487 1490 1494 1498 1502 1505 1507 1510 1513 1515 1518 1520 1523 1527 1530 1533 1536 1538 1540 1541 1543 1543 1543 1544 1545 1544 1542 1540 1539 1539 1541 1542 1543 1545 1546 1547 1548 1549 1551 1553 1554 1555 1555 1556 1556 1556 1556 1556 1556 1557 1558 1557 1557 1556 1556 1556 1556 1556 1555 1555 1555 1555 1555 1555 1554 1554 1553
1433 1438 1436 1432 1434 1437 1441 1445 1449 1452 1454 1457 1461 1464 1468 1472 1475 1479 1483 1486 1491 1496 1499 1502 1504 1507 1509 1512 1515 1518 1521 1525 1528 1530 1533 1534 1536 1537 1537 1538 1539 1539 1538 1536 1533 1531 1531 1532 1534 1535 1537 1540 1542 1544 1545 1546 1548 1550 1552 1553 1553 1554 1554 1554 1554 1554 1554 1555 1555 1555 1555 1555 1555 1555 1554 1554 1554 1554 1554 1554 1554 1553 1553 1553 1552
1426 1435 1436 1431 1430 1433 1437 1441 1445 1448 1451 1454 1457 1460 1464 1468 1472 1476 1479 1483 1488 1494 1497 1500 1502 1504 1507 1509 1513 1515 1518 1521 1523 1525 1527 1528 1529 1530 1531 1533 1533 1532 1529 1527 1526 1526 1526 1528 1530 1531 1533 1536 1539 1541 1543 1544 1545 1547 1548 1549 1551 1551 1551 1551 1551 1551 1552 1552 1552 1552 1553 1553 1553 1553 1552 1552 1552 1552 1553 1552 1552 1552 1551 1551 1551
1421 1428 1431 1429 1428 1431 1434 1437 1440 1443 1447 1450 1453 1456 1460 1464 1468 1472 1475 1480 1486 1490 1493 1497 1499 1502 1505 1507 1509 1512 1514 1516 1518 1519 1519 1520 1521 1522 1524 1526 1526 1524 1521 1519 1521 1523 1523 1524 1527 1529 1530 1532 1536 1538 1540 1541 1542 1543 1545 1546 1547 1548 1549 1549 1549 1549 1549 1550 1550 1550 1551 1551 1551 1551 1550 1550 1550 1551 1551 1550 1549 1549 1549 1549 1549
1416 1421 1424 1425 1426 1428 1430 1432 1434 1437 1442 1446 1449 1453 1456 1460 1464 1468 1472 1477 1482 1486 1488 1491 1495 1498 1502 1504 1505 1507 1508 1510 1512 1513 1513 1514 1515 1516 1518 1518 1516 1516 1515 1515 1518 1520 1520 1521 1524 1526 1527 1529 1532 1534 1536 1539 1541 1541 1542 1543 1544 1545 1546 1546 1546 1546 1547 1548 1548 1549 1549 1549 1549 1549 1549 1549 1550 1550 1549 1549 1548 1548 1548 1547 1547
1414 1417 1420 1422 1423 1424 1426 1428 1430 1433 1438 1442 1446 1450 1453 1457 1460 1464 1469 1473 1478 1481 1483 1486 1490 1493 1496 1499 1501 1503 1502 1504 1507 1509 1508 1509 1510 1511 1512 1511 1509 1510 1512 1513 1516 1517 1518 1519 1521 1524 1526 1527 1529 1531 1533 1536 1539 1540 1540 1541 1542 1544 1544 1544 1544 1544 1545 1545 1546 1546 1547 1548 1548 1547 1548 1548 1548 1548 1548 1547 1547 1547 1546 1546 1545
1412 1414 1418 1420 1420 1422 1423 1426 1428 1430 1435 1439 1442 1446 1450 1453 1456 1461 1465 1470 1473 1476 1478 1482 1485 1487 1489 1492 1495 1497 1496 1498 1501 1503 1502 1503 1504 1505 1506 1505 1505 1508 1510 1512 1514 1515 1516 1517 1519 1522 1524 1525 1526 1528 1529 1533 1536 1539 1539 1538 1539 1541 1542 1542 1541 1542 1543 1543 1543 1544 1545 1546 1546 1546 1546 1546 1546 1546 1546 1545 1545 1544 1544 1544 1543
1411 1413 1416 1417 1417 1419 1420 1423 1425 1428 1432 1435 1439 1443 1446 1449 1453 1457 1461 1465 1468 1471 1474 1478 1481 1483 1484 1486 1489 1491 1492 1493 1496 1497 1497 1498 1499 1500 1501 1502 1503 1505 1507 1509 1511 1513 1514 1515 1517 1519 1521 1523 1524 1525 1526 1529 1532 1535 1537 1536 1536 1538 1539 1539 1539 1539 1540 1541 1541 1543 1543 1544 1544 1544 1543 1543 1543 1543 1542 1542 1543 1542 1542 1542 1541
1413 1412 1413 1415 1416 1416 1417 1420 1423 1426 1429 1432 1436 1440 1443 1446 1449 1453 1457 1461 1463 1466 1470 1474 1477 1478 1480 1482 1485 1488 1489 1489 1490 1491 1492 1493 1494 1496 1498 1499 1500 1501 1503 1505 1507 1509 1511 1512 1514 1516 1517 1519 1520 1522 1523 1526 1529 1532 1534 1534 1534 1534 1535 1536 1537 1537 1538 1538 1539 1540 1541 1541 1541 1541 1541 1541 1541 1541 1540 1540 1540 1540 1540 1539 1539
1410 1409 1410 1412 1414 1415 1415 1417 1420 1423 1425 1428 1432 1435 1439 1442 1445 1449 1453 1457 1459 1462 1466 1469 1471 1473 1476 1479 1482 1484 1484 1484 1485 1486 1487 1488 1491 1494 1495 1497 1497 1498 1500 1501 1503 1506 1508 1509 1511 1512 1514 1515 1517 1519 1521 1523 1526 1530 1532 1532 1532 1532 1533 1533 1534 1535 1536 1536 1537 1538 1538 1538 1538 1538 1539 1539 1539 1539 1538 1538 1538 1538 1538 1537 1536
1402 1404 1406 1408 1411 1414 1415 1415 1417 1419 1421 1424 1427 1431 1435 1438 1441 1445 1449 1453 1456 1459 1462 1465 1467 1470 1473 1475 1477 1478 1479 1479 1480 1482 1483 1485 1488 1491 1492 1494 1494 1495 1496 1498 1500 1503 1505 1506 1507 1509 1510 1512 1514 1516 1518 1521 1524 1527 1529 1530 1530 1531 1531 1531 1531 1532 1533 1534 1535 1535 1535 1535 1535 1535 1536 1536 1535 1535 1535 1535 1535 1534 1534 1533 1532
1396 1400 1403 1405 1408 1412 1412 1411 1412 1414 1417 1420 1423 1427 1430 1434 1437 1441 1444 1449 1452 1454 1458 1460 1462 1465 1467 1469 1471 1473 1474 1475 1477 1478 1480 1482 1486 1488 1489 1491 1491 1491 1494 1496 1497 1500 1502 1504 1505 1506 1508 1510 1511 1513 1515 1518 1521 1524 1526 1527 1528 1529 1528 1528 1528 1528 1530 1531 1532 1532 1532 1532 1532 1532 1532 1532 1532 1531 1531 1531 1531 1530 1530 1529 1528
1394 1397 1400 1402 1405 1408 1409 1409 1410 1412 1414 1417 1419 1422 1426 1429 1434 1437 1441 1445 1447 1450 1454 1455 1456 1460 1462 1465 1468 1469 1470 1473 1474 1476 1477 1480 1482 1484 1486 1487 1488 1489 1492 1494 1495 1497 1500 1502 1503 1504 1506 1507 1509 1510 1511 1515 1518 1520 1522 1523 1525 1525 1525 1526 1526 1526 1527 1528 1529 1529 1529 1529 1529 1529 1530 1529 1528 1528 1528 1527 1527 1526 1525 1525 1524
1392 1394 1397 1400 1402 1404 1406 1407 1409 1411 1412 1415 1417 1419 1422 1426 1430 1433 1437 1440 1443 1447 1449 1450 1452 1456 1459 1462 1465 1466 1468 1470 1471 1473 1475 1477 1480 1481 1483 1485 1486 1488 1490 1491 1493 1495 1497 1498 1500 1501 1503 1505 1507 1508 1508 1511 1515 1516 1518 1520 1521 1522 1523 1523 1523 1524 1525 1525 1526 1526 1526 1526 1526 1526 1526 1526 1526 1525 1525 1524 1523 1522 1521 1521 1521
1389 1391 1395 1399 1400 1400 1402 1403 1406 1409 1411 1413 1415 1416 1419 1423 1426 1429 1432 1436 1439 1442 1444 1446 1449 1453 1456 1459 1461 1463 1465 1467 1469 1472 1473 1475 1478 1480 1481 1483 1485 1486 1488 1489 1491 1493 1494 1495 1497 1498 1501 1503 1505 1506 1506 1509 1512 1513 1515 1517 1518 1519 1520 1520 1521 1521 1522 1523 1523 1523 1523 1523 1523 1523 1523 1524 1523 1522 1521 1520 1519 1519 1518 1518 1517
1386 1388 1392 1394 1395 1396 1397 1398 1401 1405 1408 1409 1411 1413 1416 1419 1423 1425 1428 1431 1435 1439 1441 1443 1446 1449 1452 1455 1457 1459 1461 1464 1467 1469 1471 1473 1475 1477 1479 1481 1483 1485 1486 1487 1489 1491 1491 1493 1494 1496 1498 1500 1502 1503 1503 1506 1508 1510 1512 1514 1515 1515 1516 1518 1518 1519 1519 1519 1519 1520 1520 1521 1521 1521 1521 1521 1520 1519 1518 1516 1515 1515 1515 1514 1513
1384 1386 1387 1389 1391 1392 1393 1395 1397 1401 1403 1405 1408 1410 1412 1416 1419 1422 1424 1428 1432 1436 1438 1440 1442 1446 1449 1451 1454 1456 1459 1462 1464 1466 1468 1470 1472 1474 1476 1478 1480 1483 1485 1486 1488 1489 1490 1491 1492 1493 1494 1497 1499 1499 1500 1502 1505 1507 1509 1511 1511 1512 1513 1514 1515 1515 1516 1517 1517 1518 1518 1518 1518 1519 1519 1519 1518 1516 1515 1513 1513 1512 1512 1511 1510
1380 1382 1383 1385 1387 1389 1390 1392 1394 1397 1400 1403 1405 1407 1409 1412 1416 1418 1422 1425 1429 1433 1435 1437 1440 1443 1446 1448 1451 1453 1456 1459 1461 1462 1465 1467 1468 1470 1473 1474 1477 1480 1483 1486 1487 1487 1488 1489 1490 1492 1493 1494 1496 1496 1497 1499 1502 1504 1506 1508 1508 1510 1511 1511 1512 1513 1514 1515 1515 1515 1515 1515 1515 1515 1516 1516 1515 1513 1512 1511 1510 1510 1509 1508 1508
1376 1378 1380 1382 1383 1386 1388 1390 1392 1395 1398 1401 1404 1406 1408 1410 1412 1416 1419 1423 1427 1430 1432 1435 1438 1440 1443 1445 1448 1451 1454 1456 1459 1461 1463 1465 1467 1469 1470 1471 1474 1477 1480 1483 1485 1485 1486 1487 1489 1491 1491 1492 1493 1493 1494 1496 1499 1501 1503 1505 1506 1507 1508 1509 1510 1511 1512 1512 1511 1511 1511 1511 1512 1512 1513 1513 1512 1511 1510 1509 1508 1507 1507 1506 1505
1374 1376 1378 1379 1381 1384 1386 1388 1389 1392 1396 1400 1403 1406 1408 1409 1411 1414 1418 1422 1425 1428 1431 1434 1437 1438 1441 1444 1446 1449 1452 1455 1458 1460 1463 1465 1466 1468 1470 1470 1471 1474 1477 1480 1482 1483 1484 1486 1488 1489 1489 1489 1490 1490 1491 1494 1497 1499 1501 1503 1503 1504 1506 1508 1508 1509 1508 1508 1507 1507 1508 1509 1510 1510 1511 1510 1509 1508 1507 1506 1506 1505 1504 1503 1502
1372 1374 1376 1377 1380 1383 1386 1388 1389 1390 1394 1398 1401 1404 1407 1409 1410 1414 1417 1421 1424 1427 1430 1434 1436 1438 1441 1443 1446 1449 1451 1453 1456 1459 1462 1465 1466 1467 1468 1468 1470 1472 1475 1478 1480 1481 1483 1485 1486 1487 1487 1488 1488 1489 1490 1492 1495 1497 1498 1500 1501 1502 1503 1505 1505 1505 1505 1504 1504 1504 1505 1506 1507 1508 1508 1507 1506 1505 1504 1503 1503 1502 1501 1499 1498
1371 1373 1374 1376 1379 1382 1386 1388 1389 1391 1393 1397 1400 1403 1407 1409 1411 1414 1417 1420 1424 1427 1430 1433 1436 1438 1440 1442 1445 1448 1449 1451 1454 1458 1461 1464 1466 1466 1466 1466 1468 1470 1472 1475 1478 1480 1482 1484 1485 1486 1486 1486 1486 1487 1489 1491 1493 1495 1496 1498 1499 1500 1500 1501 1502 1502 1502 1502 1502 1501 1502 1504 1505 1505 1505 1504 1503 1502 1501 1500 1500 1498 1497 1496 1495
1370 1372 1373 1375 1378 1381 1385 1387 1389 1392 1394 1397 1400 1403 1407 1411 1413 1415 1418 1421 1424 1427 1430 1433 1436 1438 1441 1443 1445 1447 1448 1450 1452 1455 1459 1463 1464 1465 1466 1467 1468 1469 1471 1473 1477 1479 1481 1483 1483 1484 1484 1484 1485 1486 1487 1489 1491 1493 1494 1495 1496 1497 1498 1499 1499 1499 1499 1500 1500 1499 1500 1501 1502 1502 1501 1501 1500 1499 1498 1498 1497 1495 1494 1493 1492
1370 1372 1374 1376 1379 1382 1386 1389 1392 1394 1395 1397 1400 1404 1409 1413 1415 1417 1419 1422 1424 1426 1429 1431 1435 1438 1442 1445 1446 1448 1449 1451 1453 1456 1460 1463 1464 1465 1466 1467 1468 1468 1470 1473 1475 1478 1480 1481 1482 1482 1483 1484 1484 1484 1486 1487 1489 1490 1491 1492 1494 1495 1496 1497 1497 1497 1497 1498 1497 1497 1498 1498 1499 1498 1498 1498 1497 1496 1495 1495 1494 1493 1492 1491 1489
1372 1374 1375 1377 1380 1382 1385 1388 1391 1393 1395 1398 1402 1406 1409 1412 1415 1417 1420 1422 1424 1426 1428 1430 1432 1435 1439 1442 1444 1446 1448 1450 1452 1456 1459 1462 1463 1464 1466 1467 1467 1468 1470 1472 1474 1476 1478 1479 1480 1481 1481 1482 1482 1482 1484 1485 1486 1488 1489 1490 1492 1493 1494 1494 1495 1495 1495 1495 1495 1495 1496 1496 1496 1496 1495 1495 1494 1493 1493 1492 1491 1490 1489 1488 1487
1376 1377 1377 1379 1380 1382 1384 1387 1391 1394 1396 1400 1403 1405 1408 1411 1413 1416 1419 1421 1424 1427 1429 1432 1433 1435 1437 1439 1440 1443 1445 1447 1450 1453 1457 1460 1463 1464 1465 1466 1466 1468 1469 1471 1473 1474 1476 1477 1478 1479 1480 1480 1480 1481 1482 1483 1484 1486 1487 1489 1490 1491 1491 1492 1493 1493 1493 1493 1493 1493 1493 1494 1493 1493 1493 1492 1491 1491 1491 1490 1489 1488 1487 1486 1485
1379 1379 1381 1382 1383 1385 1388 1391 1394 1397 1399 1402 1404 1407 1409 1411 1413 1415 1417 1419 1422 1425 1429 1433 1435 1437 1439 1440 1440 1442 1444 1446 1449 1453 1457 1460 1462 1464 1464 1464 1465 1467 1468 1469 1471 1473 1474 1476 1477 1478 1479 1479 1480 1480 1481 1481 1483 1484 1486 1487 1488 1488 1489 1490 1491 1491 1491 1491 1491 1492 1491 1491 1491 1490 1490 1490 1489 1489 1488 1488 1487 1486 1486 1485 1485
1382 1383 1384 1386 1387 1390 1392 1395 1397 1400 1402 1403 1405 1407 1410 1412 1413 1414 1415 1416 1418 1422 1427 1431 1435 1438 1440 1441 1441 1442 1443 1445 1450 1455 1458 1460 1461 1463 1463 1464 1465 1466 1467 1468 1470 1471 1473 1474 1475 1476 1477 1478 1478 1479 1480 1481 1481 1483 1484 1485 1486 1486 1488 1488 1489 1489 1489 1489 1490 1489 1489 1488 1488 1488 1488 1488 1487 1486 1486 1486 1485 1485 1485 1485 1485
1384 1386 1388 1389 1391 1394 1395 1397 1399 1400 1402 1404 1406 1408 1410 1412 1415 1416 1415 1416 1418 1422 1426 1430 1433 1436 1439 1441 1441 1441 1443 1447 1452 1455 1456 1458 1459 1461 1462 1462 1463 1464 1465 1467 1468 1470 1471 1473 1474 1474 1475 1476 1476 1478 1479 1480 1480 1481 1482 1483 1484 1485 1486 1487 1487 1487 1487 1487 1487 1487 1487 1486 1486 1486 1486 1486 1485 1485 1484 1485 1485 1485 1484 1484 1484
1388 1389 1390 1391 1394 1395 1397 1398 1399 1401 1402 1404 1406 1409 1411 1413 1416 1418 1418 1418 1420 1423 1426 1430 1433 1436 1438 1440 1441 1442 1445 1449 1452 1453 1455 1456 1457 1458 1459 1460 1461 1462 1464 1466 1467 1468 1469 1471 1471 1471 1472 1474 1475 1476 1477 1479 1479 1480 1481 1482 1482 1483 1484 1485 1485 1485 1486 1486 1486 1486 1487 1486 1486 1486 1486 1485 1485 1485 1485 1485 1485 1485 1484 1483 1482
1391 1392 1393 1394 1396 1397 1398 1399 1400 1401 1403 1405 1407 1410 1412 1413 1414 1416 1418 1420 1422 1424 1427 1430 1432 1435 1437 1439 1441 1444 1446 1449 1451 1453 1454 1455 1456 1457 1458 1459 1460 1462 1463 1465 1466 1467 1468 1469 1469 1469 1471 1473 1474 1475 1476 1477 1477 1478 1479 1480 1481 1482 1482 1483 1484 1484 1484 1485 1485 1486 1486 1485 1485 1485 1485 1484 1484 1484 1484 1484 1483 1483 1483 1481 1481